AC2EV Weather Reports


Display with metric or nautical units.
time (UTC)temp
F
wind
direction
speed
MPH
gust
MPH
rain 1hr
in
rain 24hr
in
rain mn
in
humidity
%
barometer
mb
20260905032317 66 0 0.0 0.0 0.00 0.00 0.00 87 1013.0
20260905031816 66 0 0.0 0.0 0.00 0.00 0.00 87 1012.9
20260905031317 67 0 0.0 0.0 0.00 0.00 0.00 87 1012.9
20260905030817 67 0 0.0 0.0 0.00 0.00 0.00 87 1012.9
20260905030317 67 0 0.0 0.0 0.00 0.00 0.00 87 1012.9
20260905025817 67 0 0.0 0.0 0.00 0.00 0.00 86 1012.8
20260905025311 67 0 0.0 0.0 0.00 0.00 0.00 86 1012.9
20260905024811 67 0 0.0 0.0 0.00 0.00 0.00 86 1012.9
20260905024334 67 0 0.0 0.0 0.00 0.00 0.00 86 1012.8
20260905023809 68 0 0.0 0.0 0.00 0.00 0.00 86 1012.8
20260905023330 68 0 0.0 0.0 0.00 0.00 0.00 86 1012.9
20260905022807 68 0 0.0 0.0 0.00 0.00 0.00 86 1013.0
20260905022307 68 0 0.0 0.0 0.00 0.00 0.00 86 1012.9
20260905021806 68 0 0.0 0.0 0.00 0.00 0.00 86 1013.0
20260905021302 68 0 0.0 0.0 0.00 0.00 0.00 85 1013.0
20260905020804 69 0 0.0 0.0 0.00 0.00 0.00 85 1012.9
20260905020303 69 0 0.0 0.0 0.00 0.00 0.00 85 1013.0
20260905015804 69 0 0.0 0.0 0.00 0.00 0.00 85 1013.0
20260905015329 69 0 0.0 0.0 0.00 0.00 0.00 84 1013.0
20260905014804 69 0 0.0 0.0 0.00 0.00 0.00 84 1013.0
20260905014302 69 0 0.0 0.0 0.00 0.00 0.00 84 1013.0
20260905013803 69 0 0.0 0.0 0.00 0.00 0.00 83 1013.1
20260905013301 70 0 0.0 0.0 0.00 0.00 0.00 83 1013.1
20260905012756 70 0 0.0 0.0 0.00 0.00 0.00 83 1013.1
20260905012249 70 0 0.0 0.0 0.00 0.00 0.00 83 1012.9
20260905011745 70 0 0.0 0.0 0.00 0.00 0.00 83 1013.0
20260905011318 70 0 0.0 0.0 0.00 0.00 0.00 83 1013.0
20260905010742 70 0 0.0 0.0 0.00 0.00 0.00 83 1013.0
20260905010240 70 0 0.0 0.0 0.00 0.00 0.00 83 1013.0
20260905005739 71 0 0.0 0.0 0.00 0.00 0.00 83 1013.0
20260905005239 71 0 0.0 0.0 0.00 0.00 0.00 83 1013.1
20260905004738 71 0 0.0 0.0 0.00 0.00 0.00 82 1013.0
20260905004236 71 0 0.0 0.0 0.00 0.00 0.00 82 1012.9
20260905003734 71 0 0.0 0.0 0.00 0.00 0.00 81 1012.8
20260905003234 71 32 0.0 0.0 0.00 0.00 0.00 80 1012.8
20260905002733 71 0 0.0 0.0 0.00 0.00 0.00 80 1012.9
20260905002232 71 0 0.0 0.0 0.00 0.00 0.00 79 1012.9
20260905001731 71 0 0.0 0.0 0.00 0.01 0.00 79 1012.9
20260905001231 72 0 0.0 0.0 0.00 0.01 0.00 78 1012.9
20260905000731 72 0 0.0 0.0 0.00 0.01 0.00 78 1012.8
20260905000319 72 0 0.0 0.0 0.00 0.01 0.00 77 1012.7
20260904235736 72 34 0.0 0.0 0.00 0.01 0.00 76 1012.6
20260904235231 72 33 0.0 0.0 0.00 0.01 0.00 75 1012.6
20260904234730 72 34 0.0 0.0 0.00 0.01 0.00 74 1012.7
20260904234230 72 35 0.0 0.0 0.00 0.01 0.00 74 1012.6
20260904233730 73 0 0.0 0.0 0.00 0.01 0.00 74 1012.6
20260904233231 73 0 0.0 0.0 0.00 0.01 0.00 73 1012.5
20260904232731 73 0 0.0 0.0 0.00 0.01 0.00 72 1012.5
20260904232316 73 37 0.0 0.0 0.00 0.01 0.00 72 1012.4
20260904231730 73 0 0.0 0.0 0.00 0.01 0.00 71 1012.4
20260904231230 73 0 0.0 0.0 0.00 0.01 0.00 70 1012.4
20260904230731 73 277 0.0 0.0 0.00 0.01 0.00 70 1012.3
20260904230231 74 284 0.0 0.0 0.00 0.01 0.00 69 1012.3
20260904225730 74 284 0.0 0.0 0.00 0.01 0.00 68 1012.1
20260904225231 74 284 0.0 0.0 0.00 0.01 0.00 68 1012.0
20260904224731 74 284 0.0 0.0 0.00 0.01 0.00 66 1012.0
20260904224315 74 285 0.0 0.0 0.00 0.01 0.00 66 1011.9
20260904223731 74 285 0.0 0.0 0.00 0.01 0.00 65 1011.9
20260904223317 74 285 0.0 0.0 0.00 0.01 0.00 65 1011.9
20260904222730 75 285 0.0 0.0 0.00 0.01 0.00 64 1011.9
20260904222232 75 285 0.0 0.0 0.00 0.01 0.00 63 1011.8
20260904221731 75 285 0.0 0.0 0.00 0.01 0.00 63 1011.8
20260904221233 75 285 0.0 0.0 0.00 0.01 0.00 63 1011.8
20260904220730 75 285 0.0 0.0 0.00 0.01 0.00 63 1011.9
20260904220231 75 0 0.0 0.0 0.00 0.01 0.00 63 1011.9
20260904215803 75 285 0.0 0.0 0.00 0.01 0.00 63 1011.8
20260904215316 75 285 0.0 0.0 0.00 0.01 0.00 63 1011.8
20260904214730 76 285 0.0 0.0 0.00 0.01 0.00 62 1011.9
20260904214317 76 285 0.0 0.0 0.00 0.01 0.00 62 1011.9
20260904213730 76 285 0.0 0.0 0.00 0.01 0.00 62 1011.9
20260904213231 76 285 0.0 0.0 0.00 0.01 0.00 63 1011.9
20260904212730 76 285 0.0 0.0 0.00 0.01 0.00 62 1011.9
20260904212230 76 285 0.0 0.0 0.00 0.01 0.00 61 1012.1
20260904211731 76 285 0.0 0.0 0.00 0.01 0.00 61 1012.1
20260904211231 76 285 0.0 0.0 0.00 0.01 0.00 59 1012.3
20260904210731 76 284 0.0 0.0 0.00 0.01 0.00 61 1012.3
20260904210231 76 284 0.0 0.0 0.00 0.01 0.00 59 1012.4
20260904205729 76 284 0.0 0.0 0.00 0.01 0.00 60 1012.3
20260904205317 76 284 0.0 0.0 0.00 0.01 0.00 60 1012.4
20260904204717 76 285 0.0 0.0 0.00 0.01 0.00 60 1012.4
20260904204213 76 285 0.0 0.0 0.00 0.01 0.00 57 1012.3
20260904203713 76 285 0.0 0.0 0.00 0.01 0.00 58 1012.4
20260904203319 76 285 0.0 0.0 0.00 0.01 0.00 59 1012.4
20260904202713 76 285 0.0 0.0 0.00 0.01 0.00 59 1012.4
20260904202213 77 285 0.0 0.0 0.00 0.01 0.00 60 1012.4
20260904201714 76 285 0.0 0.0 0.00 0.01 0.00 61 1012.4
20260904201213 77 285 0.0 0.0 0.00 0.01 0.00 59 1012.5
20260904200713 77 285 0.0 0.0 0.00 0.01 0.00 59 1012.5
20260904200213 78 285 0.0 1.0 0.00 0.01 0.00 58 1012.5
20260904195713 78 285 0.0 1.0 0.00 0.01 0.00 58 1012.6
20260904195320 78 285 0.0 0.0 0.00 0.01 0.00 58 1012.7
20260904194709 78 285 0.0 1.0 0.00 0.01 0.00 59 1012.8
20260904194209 78 285 0.0 1.0 0.00 0.01 0.00 58 1012.9
20260904193756 78 284 0.0 5.0 0.00 0.01 0.00 59 1013.0
20260904193319 78 284 0.0 5.0 0.00 0.01 0.00 59 1013.0
20260904192709 78 258 0.0 0.0 0.00 0.01 0.00 60 1013.0
20260904192209 78 257 0.0 0.0 0.00 0.01 0.00 60 1013.1
20260904191709 78 257 0.0 0.0 0.00 0.01 0.00 60 1013.1
20260904191209 78 257 0.0 0.0 0.00 0.01 0.00 61 1013.1
20260904190709 78 257 0.0 0.0 0.00 0.01 0.00 63 1013.1
20260904190209 78 257 0.0 0.0 0.00 0.01 0.00 63 1013.2
20260904185709 78 257 0.0 0.0 0.00 0.01 0.00 64 1013.3
20260904185209 78 257 0.0 0.0 0.00 0.01 0.00 62 1013.4
20260904184709 78 257 0.0 0.0 0.00 0.01 0.00 62 1013.4
20260904184322 78 257 0.0 0.0 0.00 0.01 0.00 62 1013.4
20260904183709 78 254 0.0 0.0 0.00 0.01 0.00 61 1013.3
20260904183208 78 254 0.0 0.0 0.00 0.01 0.00 62 1013.5
20260904182707 78 254 0.0 0.0 0.00 0.01 0.00 62 1013.5
20260904182207 78 254 0.0 0.0 0.00 0.01 0.00 64 1013.4
20260904181710 77 254 0.0 0.0 0.00 0.01 0.00 63 1013.5
20260904180703 78 261 0.0 1.0 0.00 0.01 0.00 62 1013.5
20260904180202 78 248 0.0 0.0 0.00 0.01 0.00 64 1013.6
20260904175703 77 248 0.0 1.0 0.00 0.01 0.00 63 1013.7
20260904175202 77 250 0.0 1.0 0.00 0.01 0.00 61 1013.8
20260904174702 77 235 0.0 1.0 0.00 0.01 0.00 62 1013.8
20260904174203 77 235 0.0 1.0 0.00 0.01 0.00 62 1013.8
20260904173703 77 241 0.0 0.0 0.00 0.01 0.00 64 1013.7
20260904173202 77 242 0.0 0.0 0.00 0.01 0.00 62 1013.7
20260904172703 77 242 0.0 0.0 0.00 0.01 0.00 61 1013.9
20260904172203 77 242 0.0 0.0 0.00 0.01 0.00 64 1014.0
20260904171702 77 242 0.0 0.0 0.00 0.01 0.00 62 1013.9
20260904171204 77 242 0.0 0.0 0.00 0.01 0.00 64 1014.0
20260904170702 76 242 0.0 0.0 0.00 0.01 0.00 66 1014.0
20260904170203 76 242 0.0 0.0 0.00 0.01 0.00 64 1014.2
20260904165703 76 242 0.0 0.0 0.00 0.01 0.00 65 1014.2
20260904165203 76 240 0.0 0.0 0.00 0.01 0.00 63 1014.2
20260904164704 76 240 0.0 0.0 0.00 0.01 0.00 62 1014.2
20260904164200 76 240 0.0 0.0 0.00 0.01 0.00 64 1014.1
20260904163655 76 240 0.0 0.0 0.00 0.01 0.00 62 1014.1
20260904163315 76 240 0.0 0.0 0.00 0.01 0.00 61 1014.3
20260904162654 76 240 0.0 0.0 0.00 0.01 0.00 62 1014.3
20260904162316 76 231 0.0 0.0 0.00 0.01 0.00 63 1014.2
20260904161653 76 232 0.0 0.0 0.00 0.01 0.00 63 1014.2
20260904161151 75 232 0.0 0.0 0.00 0.01 0.00 63 1014.2
20260904160649 75 232 0.0 0.0 0.00 0.01 0.00 64 1014.1
20260904160147 75 238 0.0 0.0 0.00 0.01 0.00 63 1014.3
20260904155646 75 238 0.0 0.0 0.00 0.01 0.00 63 1014.3
20260904155142 75 236 0.0 0.0 0.00 0.01 0.00 65 1014.2
20260904154640 75 236 0.0 0.0 0.00 0.01 0.00 66 1014.2
20260904154141 74 236 0.0 0.0 0.00 0.01 0.00 67 1014.3
20260904153639 74 236 0.0 0.0 0.00 0.01 0.00 71 1014.2
20260904153136 74 236 0.0 0.0 0.00 0.01 0.00 73 1014.2
20260904152636 74 236 0.0 0.0 0.00 0.01 0.00 73 1014.2
20260904152137 74 235 0.0 0.0 0.00 0.01 0.00 74 1014.2
20260904151635 73 235 0.0 0.0 0.00 0.01 0.00 76 1014.2
20260904151133 73 235 0.0 0.0 0.00 0.01 0.00 76 1014.2
20260904150632 73 235 0.0 0.0 0.00 0.01 0.00 77 1014.0
20260904150134 73 234 0.0 0.0 0.00 0.01 0.00 78 1014.0
20260904145631 73 234 0.0 0.0 0.00 0.01 0.00 77 1014.0
20260904145131 74 234 0.0 0.0 0.00 0.01 0.00 77 1013.9
20260904144631 74 234 0.0 0.0 0.00 0.01 0.00 77 1014.0
20260904144130 73 234 0.0 0.0 0.00 0.01 0.00 75 1014.0
20260904143630 74 234 0.0 0.0 0.00 0.01 0.00 76 1014.1
20260904143131 74 234 0.0 0.0 0.00 0.01 0.00 76 1014.1
20260904142631 74 232 0.0 0.0 0.00 0.01 0.00 77 1014.0
20260904142130 73 231 0.0 0.0 0.00 0.01 0.00 79 1014.0
20260904141631 73 231 0.0 0.0 0.00 0.01 0.00 79 1014.2
20260904141129 73 231 0.0 0.0 0.00 0.01 0.00 79 1014.2
20260904140630 72 231 0.0 0.0 0.00 0.01 0.00 80 1014.2
20260904140131 71 231 0.0 0.0 0.00 0.01 0.00 81 1014.3
20260904135631 71 231 0.0 0.0 0.00 0.01 0.00 81 1014.3
20260904135131 71 231 0.0 0.0 0.00 0.01 0.00 82 1014.1
20260904134631 71 231 0.0 0.0 0.00 0.01 0.00 83 1014.3
20260904134131 71 231 0.0 0.0 0.00 0.01 0.00 84 1014.3
20260904133630 71 231 0.0 0.0 0.00 0.01 0.00 84 1014.3
20260904133130 70 231 0.0 0.0 0.00 0.01 0.00 85 1014.3
20260904132630 70 231 0.0 0.0 0.00 0.01 0.00 85 1014.3
20260904132128 70 230 0.0 0.0 0.00 0.01 0.00 86 1014.2
20260904131628 69 230 0.0 0.0 0.00 0.01 0.00 87 1014.3
20260904131129 69 230 0.0 0.0 0.00 0.01 0.00 87 1014.2
20260904130626 69 230 0.0 0.0 0.00 0.01 0.00 87 1014.2
20260904130126 69 230 0.0 0.0 0.00 0.01 0.00 87 1014.4
20260904125627 69 230 0.0 0.0 0.00 0.01 0.00 88 1014.4
20260904125124 69 230 0.0 0.0 0.00 0.01 0.00 88 1014.3
20260904124624 68 230 0.0 0.0 0.00 0.01 0.00 88 1014.4
20260904124122 68 230 0.0 0.0 0.00 0.01 0.00 88 1014.3
20260904123620 68 230 0.0 0.0 0.00 0.01 0.00 88 1014.2
20260904123118 67 230 0.0 0.0 0.00 0.01 0.00 89 1014.2
20260904122615 67 230 0.0 0.0 0.00 0.01 0.00 89 1014.2
20260904122116 67 230 0.0 0.0 0.00 0.01 0.00 89 1014.0
20260904121617 67 230 0.0 0.0 0.00 0.01 0.00 89 1014.0
20260904121113 66 230 0.0 0.0 0.00 0.01 0.00 89 1014.0
20260904120612 66 230 0.0 0.0 0.00 0.01 0.00 90 1013.9
20260904120112 66 230 0.0 0.0 0.00 0.01 0.00 90 1014.1
20260904115613 66 230 0.0 0.0 0.00 0.01 0.00 90 1014.1
20260904115112 65 17 0.0 0.0 0.00 0.01 0.00 90 1013.9
20260904114614 65 21 0.0 0.0 0.00 0.01 0.00 90 1013.9
20260904114112 65 19 0.0 0.0 0.00 0.01 0.00 90 1013.9
20260904113612 65 229 0.0 0.0 0.00 0.01 0.00 90 1014.0
20260904113112 65 229 0.0 0.0 0.00 0.01 0.00 90 1014.0
20260904112608 64 230 0.0 0.0 0.00 0.01 0.00 90 1014.0
20260904112107 64 230 0.0 0.0 0.00 0.01 0.00 90 1014.0
20260904111608 64 230 0.0 0.0 0.00 0.01 0.00 90 1013.9
20260904111305 64 230 0.0 0.0 0.00 0.01 0.00 90 1013.9
20260904110607 64 230 0.0 0.0 0.00 0.01 0.00 91 1013.8
20260904110107 64 230 0.0 0.0 0.00 0.01 0.00 90 1013.8
20260904105609 64 230 0.0 0.0 0.00 0.01 0.00 90 1013.8
20260904105108 64 230 0.0 0.0 0.00 0.01 0.00 90 1013.7
20260904104608 64 41 0.0 0.0 0.00 0.01 0.00 90 1013.7
20260904104303 64 40 0.0 0.0 0.00 0.01 0.00 90 1013.6
20260904103607 64 40 0.0 0.0 0.00 0.01 0.00 90 1013.6
20260904103106 64 40 0.0 0.0 0.00 0.01 0.00 90 1013.7
20260904102606 64 40 0.0 0.0 0.00 0.01 0.00 90 1013.6
20260904102106 64 39 0.0 0.0 0.00 0.01 0.00 90 1013.5
20260904101606 64 38 0.0 0.0 0.00 0.01 0.00 90 1013.5
20260904101106 65 38 0.0 0.0 0.00 0.01 0.00 90 1013.3
20260904100605 65 38 0.0 0.0 0.00 0.01 0.00 90 1013.3
20260904100106 65 37 0.0 0.0 0.00 0.01 0.00 90 1013.3
20260904095606 65 37 0.0 0.0 0.00 0.01 0.00 90 1013.3
20260904095103 65 36 0.0 0.0 0.00 0.01 0.00 90 1013.3
20260904094604 65 38 0.0 0.0 0.00 0.01 0.00 89 1013.2
20260904094104 65 37 0.0 0.0 0.00 0.01 0.00 89 1013.3
20260904093603 65 37 0.0 0.0 0.00 0.01 0.00 89 1013.2
20260904093103 65 36 0.0 0.0 0.00 0.01 0.00 89 1013.2
20260904092602 65 34 0.0 0.0 0.00 0.01 0.00 89 1013.3
20260904092059 66 34 0.0 0.0 0.00 0.01 0.00 89 1013.3
20260904091551 66 34 0.0 0.0 0.00 0.01 0.00 89 1013.1
20260904090541 66 36 0.0 0.0 0.00 0.01 0.00 89 1013.1
20260904090038 66 35 0.0 0.0 0.00 0.01 0.00 89 1013.1
20260904085538 66 34 0.0 0.0 0.00 0.01 0.00 89 1013.0
20260904085038 66 32 0.0 0.0 0.00 0.01 0.00 89 1013.0
20260904084536 66 31 0.0 0.0 0.00 0.01 0.00 89 1012.9
20260904084036 66 33 0.0 0.0 0.00 0.01 0.00 89 1012.9
20260904083535 66 33 0.0 0.0 0.00 0.01 0.00 89 1013.0
20260904083037 66 32 0.0 0.0 0.00 0.01 0.00 89 1012.8
20260904082535 66 32 0.0 0.0 0.00 0.01 0.00 89 1012.8
20260904082037 66 34 0.0 0.0 0.00 0.01 0.00 89 1012.8
20260904081535 66 34 0.0 0.0 0.00 0.01 0.00 89 1012.6
20260904081034 66 34 0.0 0.0 0.00 0.01 0.00 89 1012.6
20260904080531 67 34 0.0 0.0 0.00 0.01 0.00 89 1012.5
20260904080032 67 36 0.0 0.0 0.00 0.01 0.00 89 1012.5
20260904075530 67 34 0.0 0.0 0.00 0.01 0.00 89 1012.5
20260904075030 67 36 0.0 0.0 0.00 0.01 0.00 88 1012.6
20260904074530 67 33 0.0 0.0 0.00 0.01 0.00 88 1012.6
20260904074030 67 34 0.0 0.0 0.00 0.01 0.00 88 1012.6
20260904073532 67 32 0.0 0.0 0.00 0.01 0.00 88 1012.5
20260904073027 68 30 0.0 0.0 0.00 0.01 0.00 88 1012.6
20260904072521 68 28 0.0 0.0 0.00 0.01 0.00 88 1012.5
20260904072015 68 28 0.0 0.0 0.00 0.01 0.00 88 1012.4
20260904071516 68 27 0.0 0.0 0.00 0.01 0.00 88 1012.4
20260904071016 68 28 0.0 0.0 0.00 0.01 0.00 88 1012.4
20260904070515 68 29 0.0 0.0 0.00 0.01 0.00 88 1012.4
20260904070014 68 30 0.0 0.0 0.00 0.01 0.00 88 1012.4
20260904065513 68 30 0.0 0.0 0.00 0.01 0.00 89 1012.4
20260904065014 68 30 0.0 0.0 0.00 0.01 0.00 89 1012.3
20260904064512 68 29 0.0 0.0 0.00 0.01 0.00 89 1012.3
20260904064010 68 30 0.0 0.0 0.00 0.01 0.00 89 1012.4
20260904063507 68 30 0.0 0.0 0.00 0.01 0.00 89 1012.3
20260904063006 68 30 0.0 0.0 0.00 0.01 0.00 89 1012.4
20260904062504 68 30 0.0 0.0 0.00 0.01 0.00 89 1012.4
20260904062005 68 32 0.0 0.0 0.00 0.01 0.00 89 1012.4
20260904061505 68 32 0.0 0.0 0.00 0.01 0.00 89 1012.5
20260904061003 68 31 0.0 0.0 0.00 0.01 0.00 89 1012.6
20260904060502 68 32 0.0 0.0 0.00 0.01 0.00 89 1012.6
20260904060004 68 32 0.0 0.0 0.00 0.01 0.00 89 1012.6
20260904055502 68 32 0.0 0.0 0.00 0.01 0.00 89 1012.6
20260904055003 68 32 0.0 0.0 0.00 0.01 0.00 89 1012.7
20260904054502 68 34 0.0 0.0 0.00 0.01 0.00 89 1012.7
20260904054002 68 34 0.0 0.0 0.00 0.01 0.00 89 1012.7
20260904053501 68 34 0.0 0.0 0.00 0.01 0.00 89 1012.8
20260904053002 68 34 0.0 0.0 0.00 0.01 0.00 89 1012.9
20260904052501 68 34 0.0 0.0 0.00 0.01 0.00 90 1012.9
20260904052002 68 34 0.0 0.0 0.00 0.01 0.00 90 1012.8
20260904051501 69 34 0.0 0.0 0.00 0.01 0.00 90 1012.9
20260904051002 69 34 0.0 0.0 0.00 0.01 0.00 90 1012.9
20260904050501 69 34 0.0 0.0 0.00 0.01 0.00 90 1013.0
20260904050002 69 32 0.0 0.0 0.00 0.01 0.00 90 1013.0
20260904045501 69 32 0.0 0.0 0.00 0.01 0.00 90 1012.9
20260904045002 69 32 0.0 0.0 0.00 0.01 0.00 90 1013.0
20260904044501 69 30 0.0 0.0 0.00 0.01 0.00 90 1013.0
20260904044001 69 31 0.0 0.0 0.00 0.01 0.00 90 1013.0
20260904043500 69 30 0.0 0.0 0.00 0.01 0.00 90 1012.9
20260904043002 69 30 0.0 0.0 0.00 0.01 0.00 90 1012.9
20260904042501 69 30 0.0 0.0 0.00 0.01 0.00 90 1012.8
20260904042002 69 29 0.0 0.0 0.00 0.01 0.00 90 1012.8
20260904041501 69 29 0.0 0.0 0.00 0.01 0.00 90 1012.8
20260904041001 69 30 0.0 0.0 0.00 0.01 0.00 90 1012.7
20260904040501 69 30 0.0 0.0 0.00 0.01 0.00 90 1012.7
20260904040004 69 29 0.0 0.0 0.00 0.01 0.00 90 1012.7
20260904035501 69 29 0.0 0.0 0.00 0.01 0.01 90 1012.6
20260904035001 69 29 0.0 0.0 0.00 0.01 0.01 90 1012.6
20260904034500 69 29 0.0 0.0 0.00 0.01 0.01 90 1012.5
20260904034002 69 29 0.0 0.0 0.00 0.01 0.01 90 1012.4
20260904033501 70 29 0.0 0.0 0.00 0.01 0.01 90 1012.5
20260904033002 70 30 0.0 0.0 0.00 0.01 0.01 90 1012.5
20260904032501 70 30 0.0 0.0 0.00 0.01 0.01 90 1012.4